Weather in Poselok BAM

Russia / Amur Oblast     54°07′04″N   123°41′54″E
temp.,
°C
wind,
m/s
gust,
m/s
humid.,
%
clouds,
%
prec.,
mm/h
press.,
hPa
HPBL,
m
12 april, mon
mon1200:00−11nne1187100 0.0 102930
03:00−12n1291100 0.0 102933
06:00−14nne119765 0.0 102915
09:00−8n35574 0.0 1027878
12:00−5n3543100 0.0 10252162
15:00−5n4546100 0.0 10232360
18:00−6n355674 0.1 10231493
21:00−11wnw278148 0.1 1024111
13 april, tue
tue1300:00−14wnw11955 0.0 102312
03:00−15nw119617 0.0 102217
06:00−16nw119711 0.0 102114
09:00−7nnw38605 0.0 10191058
12:00−4n5747100 0.0 10161995
15:00−3n4646100 0.1 10142121
18:00−4n3555100 0.1 10131417
21:00−11nw119110 0.1 101510
14 april, wed
wed1400:00−14n11955 0.0 101410
03:00−15n119711 0.0 101310
06:00−16n119827 0.0 101310
09:00−6n116190 0.0 1010275
12:00−2nw2245100 0.0 10091227
15:00−1nw2345100 0.0 10091562
18:00−1sw2358100 0.0 1008122
21:00−7nw1192100 0.0 101110
15 april, thu
thu1500:00−9nne119597 0.0 101210
03:00−11nne119660 0.0 101213
06:00−12nne119734 0.0 101213
09:00−3ne1266100 0.0 1010283
12:00+1e2450100 0.0 10081370
15:00+2e4647100 0.0 10071417
18:000e3664100 0.0 1008462
21:00−4ne2991100 0.0 1009288
16 april, fri
fri1600:00−4ne2873100 0.0 1007312
03:00−4ne51172100 0.1 1007743
06:00−5nne51387100 1.0 1006876
09:00−3nne51283100 1.6 10061075
12:00−2nne51184100 0.8 10061257
15:00−1nne4984100 2.2 10071036
18:000nne377498 0.3 10081098
21:00−7nw119658 0.3 101111